When you browse on this site, cookies collect data to enhance your experience and personalize the content and advertising you see.
Visit our Privacy Policy to learn more. By continuing to use the site, you agree to this use of cookies and data.
  • In Romania
  • List of Countries
  • For 7 days
  • Water Temperature
  • Satellite Maps
  • Weather Map
  • Weather Widgets
  • user-avatar
    Login

    Hourly Weather Novaya Vystavka

    Today, 18 November, Sunday

    Time Temperature Precipitation Wind Pressure Humidity
    00:00 +2°C° 0.4 mm 3 mps 752 mmHg 96%
    01:00 +1°C° 0.4 mm 3 mps 751 mmHg 96%
    02:00 +2°C° 0 mm 2 mps 750 mmHg 96%
    03:00 +2°C° 0.4 mm 2 mps 750 mmHg 97%
    04:00 +2°C° 0.4 mm 2 mps 750 mmHg 97%
    05:00 +2°C° 0.4 mm 2 mps 750 mmHg 97%
    06:00 +2°C° 0.1 mm 2 mps 750 mmHg 97%
    07:00 +2°C° 0.1 mm 2 mps 750 mmHg 97%
    08:00 +2°C° 0 mm 2 mps 751 mmHg 97%
    09:00 +2°C° 0.1 mm 2 mps 751 mmHg 96%
    10:00 +2°C° 0.1 mm 2 mps 752 mmHg 95%
    11:00 +2°C° 0.1 mm 3 mps 752 mmHg 95%
    12:00 +2°C° 0.1 mm 2 mps 753 mmHg 95%
    13:00 +2°C° 0.1 mm 2 mps 753 mmHg 95%
    14:00 +2°C° 0 mm 2 mps 754 mmHg 96%
    15:00 +2°C° 0.1 mm 2 mps 754 mmHg 96%
    16:00 +2°C° 0.1 mm 2 mps 755 mmHg 96%
    17:00 +1°C° 0.1 mm 3 mps 755 mmHg 95%
    18:00 +1°C° 0.1 mm 3 mps 756 mmHg 95%
    19:00 +1°C° 0.1 mm 3 mps 757 mmHg 95%
    20:00 +1°C° 0.1 mm 3 mps 757 mmHg 94%
    21:00 +1°C° 0 mm 3 mps 758 mmHg 93%
    22:00 +1°C° 0 mm 3 mps 758 mmHg 92%
    23:00 0°C° 0 mm 3 mps 759 mmHg 92%

    Tomorrow, 19 November, Monday

    Time Temperature Precipitation Wind Pressure Humidity
    00:00 0°C° 0 mm 3 mps 759 mmHg 91%
    01:00 0°C° 0 mm 3 mps 759 mmHg 90%
    02:00 -1°C° 0 mm 3 mps 760 mmHg 90%
    03:00 -1°C° 0 mm 3 mps 760 mmHg 90%
    04:00 -2°C° 0 mm 3 mps 761 mmHg 90%
    05:00 -2°C° 0 mm 3 mps 761 mmHg 91%
    06:00 -4°C° 0 mm 3 mps 761 mmHg 90%
    07:00 -4°C° 0 mm 3 mps 762 mmHg 90%
    08:00 -4°C° 0 mm 3 mps 762 mmHg 89%
    09:00 -4°C° 0 mm 3 mps 762 mmHg 87%
    10:00 -4°C° 0 mm 3 mps 763 mmHg 86%
    11:00 -4°C° 0 mm 3 mps 763 mmHg 84%
    12:00 -4°C° 0 mm 3 mps 763 mmHg 84%
    13:00 -3°C° 0 mm 2 mps 763 mmHg 84%
    14:00 -3°C° 0 mm 2 mps 764 mmHg 83%
    15:00 -4°C° 0 mm 2 mps 764 mmHg 85%
    16:00 -4°C° 0 mm 2 mps 764 mmHg 86%
    17:00 -5°C° 0 mm 2 mps 764 mmHg 87%
    18:00 -5°C° 0 mm 2 mps 764 mmHg 88%
    19:00 -3°C° 0 mm 1 mps 764 mmHg 89%
    20:00 -3°C° 0 mm 1 mps 764 mmHg 90%
    21:00 -3°C° 0 mm 1 mps 763 mmHg 90%
    22:00 -4°C° 0 mm 1 mps 763 mmHg 90%
    23:00 -4°C° 0 mm 1 mps 763 mmHg 89%

    Day after tomorrow, 20 November, Tuesday

    Time Temperature Precipitation Wind Pressure Humidity
    00:00 -4°C° 0 mm 1 mps 763 mmHg 88%
    01:00 -4°C° 0 mm 1 mps 763 mmHg 88%
    02:00 -4°C° 0 mm 1 mps 763 mmHg 87%
    03:00 -4°C° 0 mm 1 mps 763 mmHg 86%
    04:00 -4°C° 0 mm 1 mps 762 mmHg 85%
    05:00 -4°C° 0 mm 1 mps 762 mmHg 85%
    06:00 -4°C° 0 mm 1 mps 761 mmHg 84%
    07:00 -4°C° 0 mm 1 mps 761 mmHg 83%
    08:00 -4°C° 0 mm 1 mps 761 mmHg 82%
    09:00 -3°C° 0 mm 1 mps 760 mmHg 79%
    10:00 -4°C° 0 mm 2 mps 760 mmHg 75%
    11:00 -3°C° 0 mm 2 mps 759 mmHg 71%
    12:00 -3°C° 0 mm 2 mps 759 mmHg 72%
    13:00 -3°C° 0 mm 2 mps 758 mmHg 74%
    14:00 -3°C° 0 mm 2 mps 758 mmHg 75%
    15:00 -4°C° 0 mm 3 mps 758 mmHg 77%
    16:00 -5°C° 0 mm 3 mps 757 mmHg 79%
    17:00 -5°C° 0 mm 3 mps 757 mmHg 82%
    18:00 -5°C° 0 mm 3 mps 757 mmHg 83%
    19:00 -5°C° 0 mm 3 mps 756 mmHg 84%
    20:00 -5°C° 0 mm 3 mps 756 mmHg 85%
    21:00 -5°C° 0 mm 3 mps 756 mmHg 86%
    22:00 -4°C° 0 mm 3 mps 756 mmHg 87%
    23:00 -4°C° 0 mm 3 mps 756 mmHg 88%

    21 November, Wednesday

    Time Temperature Precipitation Wind Pressure Humidity
    00:00 -4°C° 0 mm 3 mps 756 mmHg 89%
    01:00 -4°C° 0 mm 3 mps 756 mmHg 89%
    02:00 -2°C° 0 mm 3 mps 756 mmHg 90%
    03:00 -2°C° 0 mm 3 mps 756 mmHg 89%
    04:00 -2°C° 0 mm 3 mps 757 mmHg 89%
    05:00 -2°C° 0 mm 3 mps 757 mmHg 88%
    06:00 -2°C° 0 mm 3 mps 757 mmHg 89%
    07:00 -2°C° 0 mm 3 mps 757 mmHg 89%
    08:00 -4°C° 0 mm 3 mps 758 mmHg 89%
    09:00 -4°C° 0 mm 3 mps 758 mmHg 86%
    10:00 -2°C° 0 mm 3 mps 758 mmHg 83%
    11:00 -2°C° 0 mm 3 mps 758 mmHg 81%
    12:00 -2°C° 0 mm 2 mps 758 mmHg 81%
    13:00 -2°C° 0 mm 2 mps 758 mmHg 82%
    14:00 -3°C° 0 mm 2 mps 758 mmHg 83%
    15:00 -3°C° 0 mm 2 mps 758 mmHg 85%
    16:00 -4°C° 0 mm 2 mps 757 mmHg 88%
    17:00 -4°C° 0 mm 2 mps 757 mmHg 91%
    18:00 -5°C° 0 mm 3 mps 757 mmHg 90%
    19:00 -5°C° 0 mm 3 mps 757 mmHg 89%
    20:00 -6°C° 0 mm 3 mps 756 mmHg 88%
    21:00 -5°C° 0 mm 3 mps 756 mmHg 88%
    22:00 -5°C° 0 mm 3 mps 755 mmHg 87%
    23:00 -5°C° 0 mm 3 mps 755 mmHg 87%

    22 November, Thursday

    Time Temperature Precipitation Wind Pressure Humidity
    00:00 -5°C° 0 mm 4 mps 755 mmHg 87%
    01:00 -4°C° 0 mm 4 mps 754 mmHg 88%
    02:00 -4°C° 0 mm 4 mps 754 mmHg 88%
    03:00 -4°C° 0 mm 5 mps 753 mmHg 87%
    04:00 -4°C° 0 mm 5 mps 753 mmHg 85%
    05:00 -2°C° 0 mm 5 mps 752 mmHg 84%
    06:00 -2°C° 0 mm 5 mps 752 mmHg 84%
    07:00 -2°C° 0 mm 5 mps 752 mmHg 84%
    08:00 -2°C° 0 mm 5 mps 752 mmHg 84%
    09:00 -2°C° 0 mm 5 mps 752 mmHg 83%
    10:00 -1°C° 0 mm 5 mps 752 mmHg 83%
    11:00 -1°C° 0 mm 5 mps 751 mmHg 83%
    12:00 -1°C° 0 mm 5 mps 751 mmHg 83%
    13:00 -1°C° 0 mm 5 mps 752 mmHg 83%
    14:00 -1°C° 0 mm 4 mps 752 mmHg 82%
    15:00 -2°C° 0 mm 4 mps 752 mmHg 83%
    16:00 -2°C° 0 mm 4 mps 752 mmHg 84%
    17:00 -3°C° 0 mm 4 mps 753 mmHg 85%
    18:00 -3°C° 0 mm 4 mps 753 mmHg 86%
    19:00 -2°C° 0 mm 3 mps 754 mmHg 87%
    20:00 -2°C° 0 mm 3 mps 755 mmHg 88%
    21:00 -4°C° 0 mm 3 mps 755 mmHg 90%
    22:00 -3°C° 0 mm 2 mps 755 mmHg 92%
    23:00 -4°C° 0 mm 2 mps 756 mmHg 94%

    23 November, Friday

    Time Temperature Precipitation Wind Pressure Humidity
    00:00 -4°C° 0 mm 2 mps 756 mmHg 94%
    01:00 -4°C° 0 mm 2 mps 756 mmHg 95%
    02:00 -4°C° 0 mm 2 mps 756 mmHg 96%
    03:00 -4°C° 0 mm 2 mps 756 mmHg 96%
    04:00 -4°C° 0 mm 2 mps 756 mmHg 96%
    05:00 -4°C° 0 mm 2 mps 756 mmHg 96%
    06:00 -4°C° 0 mm 2 mps 756 mmHg 96%
    07:00 -5°C° 0 mm 3 mps 756 mmHg 95%
    08:00 -5°C° 0 mm 3 mps 756 mmHg 95%
    09:00 -4°C° 0 mm 3 mps 755 mmHg 93%
    10:00 -3°C° 0 mm 4 mps 755 mmHg 92%
    11:00 -2°C° 0 mm 4 mps 755 mmHg 90%
    12:00 -2°C° 0 mm 5 mps 754 mmHg 89%
    13:00 -2°C° 0 mm 5 mps 753 mmHg 88%
    14:00 -2°C° 0 mm 5 mps 752 mmHg 87%
    15:00 -3°C° 0 mm 6 mps 752 mmHg 86%
    16:00 -3°C° 0 mm 6 mps 751 mmHg 85%
    17:00 -3°C° 0 mm 6 mps 750 mmHg 84%
    18:00 -3°C° 0.1 mm 6 mps 750 mmHg 83%
    19:00 -3°C° 0.1 mm 6 mps 749 mmHg 83%
    20:00 -3°C° 0.1 mm 6 mps 748 mmHg 82%
    21:00 -3°C° 0.1 mm 6 mps 748 mmHg 82%
    22:00 -3°C° 0.1 mm 6 mps 748 mmHg 82%
    23:00 -2°C° 0.1 mm 6 mps 747 mmHg 82%
    Show more